#timestamp,LO_Frequency,Hit,StdDev 
1655438415.5,286047000.7,N
1655438435.4,286047001.1,N
1655438455.2,286047000.9,N
1655438475.1,286047000.9,N
1655438476.0,286047000.9,N
1655438495.8,286046998.4,N
1655438515.6,286046998.8,N
1655438535.5,286046998.7,N
1655438555.3,286047000.8,N
1655438575.2,286046998.7,N
1655438595.9,286046999.2,N
1655438615.7,286046999.6,N
1655438635.6,286046999.6,N
1655438655.4,286046997.0,N
1655438675.2,286046998.2,N
1655438695.1,286047001.0,N
1655438696.0,286047001.0,N
1655438715.8,286047000.6,N
1655438735.7,286047000.4,N
1655438755.5,286047000.5,N
1655438775.3,286047000.3,N
1655438795.2,286047000.6,N
1655438815.0,286046999.8,N
1655438815.9,286046999.8,N
1655438835.7,286047002.1,N
1655438855.6,286047001.9,N
1655438875.4,286047002.1,N
1655438895.3,286047002.5,N
1655438915.1,286047001.7,N
1655438935.8,286047002.2,N
1655438955.7,286047002.7,N
1655438975.5,286047002.2,N
1655438995.4,286047000.0,N
1655439015.3,286046999.8,N
1655439035.1,286047000.8,N
1655439055.9,286047001.2,N
1655439075.7,286047001.1,N
1655439095.6,286047001.1,N
1655439115.4,286046999.4,N
1655439135.2,286046999.3,N
1655439155.1,286046996.6,N
1655439156.0,286046996.6,N
1655439175.8,286046997.3,N
1655439195.7,286046998.8,N
1655439215.5,286046999.2,N
1655439235.3,286046998.6,N
1655439255.2,286047000.0,N
1655439275.0,286047000.3,N
1655439275.9,286047000.3,N
1655439295.7,286047000.6,N
1655439315.6,286046998.7,N
1655439335.4,286046996.5,N
1655439355.3,286046999.5,N
1655439375.1,286046997.0,N
1655439395.8,286046999.1,N
1655439415.7,286046998.4,N
1655439435.5,286046999.6,N
1655439455.4,286046998.6,N
1655439475.2,286046998.8,N
1655439495.0,286046998.4,N
1655439495.9,286046998.4,N
1655439515.8,286046998.2,N
1655439535.6,286046999.0,N
1655439555.4,286046996.5,N
1655439575.3,286046998.8,N
1655439595.1,286047000.7,N
1655439615.9,286047000.8,N
1655439635.7,286046998.1,N
1655439655.5,286047000.9,N
1655439675.4,286046998.7,N
1655439695.2,286046999.2,N
1655439715.1,286046998.3,N
1655439716.0,286046998.3,N
1655439735.8,286046996.6,Y
1655439755.6,286046999.0,P
1655439775.5,286047001.0,P
1655439795.3,286047000.6,N
1655439815.2,286047002.8,N
1655439835.9,286047000.4,N
1655439855.7,286046998.2,N
1655439875.6,286046998.4,N
1655439895.4,286046998.6,N
1655439915.2,286046999.0,N
1655439935.1,286046999.4,N
1655439936.0,286046999.4,N
1655439955.8,286046998.6,N
1655439975.7,286047000.7,N
1655439995.5,286046998.3,N
1655440015.3,286046998.8,N
1655440035.2,286046998.5,N
1655440055.0,286047000.8,N
1655440055.9,286047000.8,N
1655440075.8,286047001.1,N
1655440095.6,286047000.8,N
1655440115.4,286047001.0,N
1655440135.3,286046998.6,N
1655440155.1,286046998.8,N
1655440175.8,286046998.9,N
1655440195.7,286046999.2,N
1655440215.5,286046998.5,N
1655440235.3,286046998.9,N
1655440255.2,286047001.1,N
1655440275.0,286046998.7,N
1655440275.9,286046998.7,N
1655440295.8,286047000.8,N
1655440315.6,286047000.5,N
1655440335.4,286047000.6,N
1655440355.3,286047002.4,N
1655440375.1,286047002.8,N
1655440395.9,286047001.2,N
1655440415.7,286047000.3,N
1655440435.5,286046998.3,N
1655440455.4,286046998.6,N
1655440475.2,286046998.5,N
1655440495.0,286047000.5,N
1655440495.9,286047000.5,N
1655440515.8,286047000.0,N
1655440535.6,286047001.0,N
1655440555.5,286047001.0,N
1655440575.3,286047000.3,N
1655440595.7,286047000.4,N
1655440615.5,286046998.8,N
1655440635.4,286046999.3,N
1655440655.2,286047001.2,N
1655440675.0,286046998.1,N
1655440675.9,286046998.1,N
1655440695.8,286046998.4,N
1655440715.6,286047001.1,N
1655440735.5,286046999.0,N
1655440755.3,286046997.8,N
1655440775.1,286046995.0,Y
1655440795.9,286046997.9,P
1655440815.7,286046997.9,N
1655440835.6,286046997.1,P
1655440855.4,286046997.1,N
1655440875.2,286046999.1,N
1655440895.1,286046998.7,N
1655440896.0,286046998.7,N
1655440915.8,286047001.1,N
1655440935.7,286047000.9,N
1655440955.5,286046998.2,N
1655440975.3,286047000.7,N
1655440995.2,286046999.7,N
1655441015.0,286047002.2,N
1655441015.9,286047002.2,N
1655441035.7,286047002.1,N
1655441055.6,286047002.1,N
1655441075.4,286047002.6,N
1655441095.3,286047002.5,N
1655441115.1,286047002.3,N
1655441135.8,286047002.1,N
1655441155.7,286047002.6,N
1655441175.5,286047001.7,N
1655441195.4,286047001.4,N
1655441215.2,286047001.6,N
1655441235.0,286047000.0,N
1655441235.9,286047000.0,N
1655441255.8,286047000.1,N
1655441275.6,286047002.3,N
1655441295.4,286047002.2,N
1655441315.3,286047002.5,N
1655441335.1,286047002.6,N
1655441355.9,286047002.2,N
1655441375.7,286047002.0,N
1655441395.5,286047001.6,N
1655441415.4,286047001.4,N
1655441435.2,286047002.6,N
1655441455.0,286047001.7,N
1655441455.9,286047001.7,N
1655441475.8,286047001.4,N
1655441495.6,286047004.3,Y
1655441515.5,286047002.7,P
1655441535.3,286047000.6,N
1655441555.1,286047000.0,N
1655441575.9,286047002.8,N
1655441595.7,286047000.0,N
1655441645.6,286047000.3,E
1655441655.5,286047001.0,N
1655441675.3,286046999.7,P
1655441695.2,286047000.0,N
1655441715.0,286047000.0,N
1655441715.9,286047000.0,N
1655441735.8,286047000.0,N
1655441755.6,286047001.0,N
1655441775.4,286047000.3,N
1655441795.3,286047000.2,N
1655441815.1,286047000.2,N
1655441835.8,286046999.9,N
1655441855.7,286046999.9,N
1655441875.5,286047000.7,N
1655441895.4,286047000.1,N
1655441915.2,286047000.6,N
1655441935.0,286046999.7,N
1655441935.9,286046999.7,N
1655441955.8,286047001.9,Y
1655441975.6,286047002.5,P
1655441995.5,286047002.0,N
